Fort Smith, AR

11:07 AM CDT on May 27, 2018 (GMT -0500)
Fort Smith Regional

Weather History for KFSM - January, 2013

Change the Weather History Date:

Wednesday, January 16, 2013

  Actual Average Record
Temperature  
Mean Temperature 35 °F 39 °F  
Max Temperature 46 °F 50 °F 77 °F (1894)
Min Temperature 23 °F 29 °F 6 °F (1982)
Degree Days  
Heating Degree Days 30 26  
Month to date heating degree days 394 416  
Since 1 July heating degree days 1486 1715  
Moisture  
Dew Point 20 °F    
Average Humidity 56    
Maximum Humidity 81    
Minimum Humidity 31    
Precipitation  
Precipitation 0.00 in 0.09 in 1.71 in (1990)
Month to date precipitation 1.23 1.40  
Year to date precipitation 1.23 1.40  
Sea Level Pressure  
Sea Level Pressure 30.20 in    
Wind  
Wind Speed 6 mph (West)    
Max Wind Speed 14 mph    
Max Gust Speed 17 mph    
Visibility 10 miles    
Events      
T = Trace of Precipitation, MM = Missing Value Source: NWS Daily Summary

Daily Weather History Graph

Daily Weather History Graph

Search for Another Location

Airport or City:

Astronomy

Jan. 16, 2013 Rise Set
Actual Time 7:25 AM CST 5:29 PM CST
Civil Twilight 6:57 AM CST 5:57 PM CST
Nautical Twilight 6:26 AM CST 6:28 PM CST
Astronomical Twilight 5:56 AM CST 6:58 PM CST
Moon 10:15 AM CST (1/16) 11:07 PM CST (1/16)
Length of Visible Light 10h 59m
Length of Day
10h 04m
Waxing Crescent, 28% of the Moon is Illuminated
Jan 16
Waxing Crescent
Jan 18
First Quarter
Jan 26
Full
Feb 3
Last Quarter
Feb 10
New

Hourly Weather History & Observations

Time (CST) Temp. Windchill Dew Point Humidity Pressure Visibility Wind Dir Wind Speed Gust Speed Precip Events Conditions
12:53 AM 30.9 °F 25.2 °F 19.9 °F 64% 30.20 in 10.0 mi NNW 5.8 mph - N/A   Clear
1:53 AM 30.0 °F 23.2 °F 21.0 °F 69% 30.20 in 10.0 mi NW 6.9 mph - N/A   Clear
2:53 AM 27.0 °F 20.5 °F 21.0 °F 78% 30.22 in 10.0 mi WSW 5.8 mph - N/A   Clear
3:53 AM 26.1 °F 17.6 °F 21.0 °F 81% 30.22 in 10.0 mi West 8.1 mph - N/A   Clear
4:53 AM 26.1 °F 17.6 °F 21.0 °F 81% 30.21 in 10.0 mi West 8.1 mph - N/A   Clear
5:53 AM 25.0 °F 16.3 °F 19.9 °F 81% 30.21 in 10.0 mi West 8.1 mph - N/A   Clear
6:53 AM 23.0 °F 13.1 °F 18.0 °F 81% 30.21 in 10.0 mi West 9.2 mph - N/A   Clear
7:53 AM 25.0 °F 16.3 °F 19.9 °F 81% 30.24 in 10.0 mi WSW 8.1 mph - N/A   Clear
8:53 AM 28.9 °F 21.1 °F 19.9 °F 69% 30.26 in 10.0 mi West 8.1 mph - N/A   Clear
9:53 AM 32.0 °F 25.6 °F 21.0 °F 64% 30.26 in 10.0 mi WSW 6.9 mph - N/A   Clear
10:53 AM 36.0 °F 30.3 °F 19.9 °F 52% 30.24 in 10.0 mi SW 6.9 mph - N/A   Clear
11:53 AM 39.0 °F 34.8 °F 15.1 °F 38% 30.21 in 10.0 mi SSW 5.8 mph - N/A   Clear
12:53 PM 41.0 °F 36.4 °F 15.8 °F 36% 30.17 in 10.0 mi SW 6.9 mph - N/A   Clear
1:53 PM 44.1 °F 39.0 °F 18.0 °F 35% 30.16 in 10.0 mi West 9.2 mph - N/A   Clear
2:53 PM 45.0 °F 39.3 °F 16.0 °F 31% 30.14 in 10.0 mi West 11.5 mph - N/A   Clear
3:53 PM 45.0 °F 38.5 °F 17.1 °F 33% 30.16 in 10.0 mi West 13.8 mph - N/A   Clear
4:53 PM 44.1 °F 39.0 °F 19.0 °F 37% 30.16 in 10.0 mi West 9.2 mph - N/A   Clear
5:53 PM 37.9 °F 32.7 °F 19.0 °F 47% 30.17 in 10.0 mi WSW 6.9 mph - N/A   Clear
6:53 PM 36.0 °F 32.1 °F 19.0 °F 50% 30.19 in 10.0 mi West 4.6 mph - N/A   Clear
7:53 PM 32.0 °F 28.7 °F 21.0 °F 64% 30.20 in 10.0 mi WSW 3.5 mph - N/A   Clear
8:53 PM 32.0 °F - 21.0 °F 64% 30.21 in 10.0 mi Calm Calm - N/A   Clear
9:53 PM 30.0 °F - 21.9 °F 72% 30.22 in 10.0 mi Calm Calm - N/A   Mostly Cloudy
10:53 PM 33.1 °F - 25.0 °F 72% 30.22 in 10.0 mi Calm Calm - N/A   Overcast
11:53 PM 37.0 °F - 23.0 °F 57% 30.22 in 10.0 mi Calm Calm - N/A   Overcast